User: anonymous   Login
Location: North Smoke Tower Site
(30.5430°N, 82.3390°W)
Time: 18:28:28
(UTC-04:00)
Language:

Cosmos 1980 Rocket - Orbit

View from above orbital plane
View from above orbital plane
View from above satellite
View from above satellite

Ground track
Ground track

The orbit data is extracted from the following two-line orbital elements,

1 19650U 88102B   15184.82314664  .00000077  00000-0  63642-4 0  9992
2 19650 070.9999 077.1570 0014794 197.6386 162.4225 14.15719042374884
Epoch (UTC): 03 July 2015 19:45:19
Eccentricity: 0.0014794
inclination: 70.9999°
perigee height: 829 km
apogee height: 850 km
right ascension of ascending node: 77.1570°
argument of perigee: 197.6386°
revolutions per day: 14.15719042
mean anomaly at epoch: 162.4225°
orbit number at epoch: 37488

The dashed part of the orbit path shows where the satellite is in the earth's shadow,  

DLR